Hourly Weather Roundup
Issued by NWS Central Illinois

Home | Current Version | Previous Version | Text Only | Print | Product List | Glossary On
Versions: 1 2 3 4 5 6 7 8 9 10 11 12 13 14 15 16 17 18 19 20 21 22 23 24 25 26 27 28 29 30 31 32 33 34 35 36 37 38 39 40 41 42 43 44 45 46 47 48 49 50
000
NZUS43 KILX 181610
HWRILX

AREA WEATHER ROUNDUP
NATIONAL WEATHER SERVICE, LINCOLN IL
1100 AM CDT SAT APR 18 2015


CITY           SKY/WX    TMP DP  RH WIND       PRES   REMARKS
BLOOMINGTON    CLOUDY    73  57  57 CALM      30.05R
CHAMPAIGN      CLOUDY    74  48  39 E9        30.04S
DECATUR        PTSUNNY   74  52  46 SE8       30.03S
EFFINGHAM      PTSUNNY   75  47  37 E3        30.04S
FLORA          MOSUNNY   72  56  57 E5        30.03R
GALESBURG      CLOUDY    73  56  56 S6        30.01S
JACKSONVILLE   CLOUDY    76  58  52 SE13      30.02R
LACON          MOSUNNY   73  56  54 CALM      30.02R
LAWRENCEVILLE  MOSUNNY   74  56  53 VRB3      30.03S
LITCHFIELD     PTSUNNY   73  59  61 SE6       30.03R
$$


CITY           SKY/WX    TMP DP  RH WIND       PRES   REMARKS
LINCOLN        CLOUDY    75  55  49 SE5       30.01R
MACOMB         CLOUDY    75  56  50 S13       30.03S
MATTOON        PTSUNNY   73  50  44 SE7       30.03R
MT CARMEL AP   MOSUNNY   73  54  49 SE3       30.03R
OLNEY-NOBLE AP MOSUNNY   72  55  56 E3        30.03S
PARIS          CLOUDY    71  50  46 SE5       30.06R
PEORIA         CLOUDY    73  57  57 S6        30.02R
PONTIAC        PTSUNNY   74  57  55 NW5       30.04S
RANTOUL        CLOUDY    74  52  45 E3        30.05R
ROBINSON       PTSUNNY   73  52  48 E3        30.05S
SPRINGFIELD    PTSUNNY   75  57  53 E9        30.02R
TAYLORVILLE    PTSUNNY   72  55  56 SE8       30.03R
$$

...REGIONAL REPORTS...


CITY           SKY/WX    TMP DP  RH WIND       PRES   REMARKS
CHICAGO O`HARE PTSUNNY   55  38  52 NE14      30.10S
KANKAKEE       PTSUNNY   73  56  55 CALM      30.05R
MOLINE         PTSUNNY   73  53  49 E7        30.00F
MOUNT VERNON   CLOUDY    72  59  64 E6        30.03R
PITTSFIELD     CLOUDY    73  60  63 S6        30.02S
QUINCY         CLOUDY    72  58  61 S8        30.00R
ROCKFORD       PTSUNNY   66  37  34 NE18G25   30.09R
$$


CITY           SKY/WX    TMP DP  RH WIND       PRES   REMARKS
BURLINGTON     CLOUDY    72  59  63 E6        29.99S
CEDAR RAPIDS   PTSUNNY   72  52  49 E10       29.99S
DES MOINES     PTSUNNY   70  56  61 E12       29.95F
KIRKSVILLE     TSTM      63  55  75 S7G22     29.98R
OTTUMWA        CLOUDY    73  57  57 SE13      29.96S
ST LOUIS       PTSUNNY   73  60  63 E8        30.01R
$$


CITY           SKY/WX    TMP DP  RH WIND       PRES   REMARKS
TERRE HAUTE    CLOUDY    73  50  44 VRB5      30.04R
EVANSVILLE     PTSUNNY   73  60  63 E5        30.03R
INDIANAPOLIS   CLOUDY    70  45  40 SE6       30.05R
LAFAYETTE      PTSUNNY   72  50  45 CALM      30.05R
MADISON        PTSUNNY   62  35  36 E16G24    30.12S
MILWAUKEE      MOSUNNY   45  36  70 N22G38    30.16R
$$




USA.gov is the U.S. government's official web portal to all federal, state and local government web resources and services.